Weather History for KGCM - December, 2013

Change the Weather History Date:

Monday, December 16, 2013

  Actual Average (KTUL) Record (KTUL)
Temperature  
Mean Temperature 47 °F 39 °F  
Max Temperature 62 °F 49 °F 77 °F (1908)
Min Temperature 32 °F 29 °F 3 °F (1989)
Degree Days  
Heating Degree Days 18 26  
Month to date heating degree days 387  
Since 1 July heating degree days 1023  
Moisture  
Dew Point 32 °F    
Average Humidity 69    
Maximum Humidity 93    
Minimum Humidity 34    
Precipitation  
Precipitation 0.00 in 0.09 in 1.46 in (2001)
Month to date precipitation 1.37  
Year to date precipitation 39.85  
Sea Level Pressure  
Sea Level Pressure 30.13 in    
Wind  
Wind Speed 6 mph (South)    
Max Wind Speed 9 mph    
Max Gust Speed -    
Visibility 10 miles    
Events      
T = Trace of Precipitation, MM = Missing Value Source: NWS Daily Summary

Daily Weather History Graph

Daily Weather History Graph

Search for Another Location

Airport or City:

Trip Planner

Search our weather history database for the weather conditions in past years. The results will help you decide how hot, cold, wet, or windy it might be!

Date:

Astronomy

Dec. 16, 2013 Rise Set
Actual Time 7:26 AM CST 5:08 PM CST
Civil Twilight 6:58 AM CST 5:37 PM CST
Nautical Twilight 6:25 AM CST 6:09 PM CST
Astronomical Twilight 5:54 AM CST 6:40 PM CST
Moon 4:58 PM CST (12/16) 6:37 AM CST (12/16)
Length of Visible Light 10h 39m
Length of Day
9h 41m
Full, 100% of the Moon is Illuminated
Dec 16
Full
Dec 17
Full
Dec 25
Last Quarter
Jan 1
New
Jan 7
First Quarter

Hourly Weather History & Observations

Time (CST) Temp. Windchill Dew Point Humidity Pressure Visibility Wind Dir Wind Speed Gust Speed Precip Events Conditions
12:15 AM 33.8 °F 30.8 °F 28.4 °F 81% 30.15 in 10.0 mi South 3.5 mph - N/A   Clear
12:35 AM 33.8 °F 30.8 °F 28.4 °F 81% 30.14 in 10.0 mi SSE 3.5 mph - N/A   Clear
12:55 AM 33.8 °F 29.6 °F 28.4 °F 81% 30.14 in 10.0 mi SSE 4.6 mph - N/A   Clear
1:15 AM 32.0 °F 25.6 °F 28.4 °F 87% 30.14 in 10.0 mi SSE 6.9 mph - N/A   Clear
1:35 AM 32.0 °F 26.4 °F 28.4 °F 87% 30.14 in 10.0 mi SSE 5.8 mph - N/A   Clear
1:55 AM 32.0 °F 25.6 °F 28.4 °F 87% 30.13 in 10.0 mi SSE 6.9 mph - N/A   Clear
2:15 AM 32.0 °F 26.4 °F 28.4 °F 87% 30.14 in 10.0 mi SSE 5.8 mph - N/A   Clear
2:35 AM 32.0 °F 25.6 °F 28.4 °F 87% 30.13 in 10.0 mi SSE 6.9 mph - N/A   Clear
2:55 AM 32.0 °F 26.4 °F 28.4 °F 87% 30.14 in 10.0 mi SSE 5.8 mph - N/A   Clear
3:15 AM 32.0 °F 26.4 °F 28.4 °F 87% 30.14 in 10.0 mi SSE 5.8 mph - N/A   Clear
3:35 AM 32.0 °F 28.7 °F 28.4 °F 87% 30.14 in 10.0 mi South 3.5 mph - N/A   Clear
3:55 AM 32.0 °F 25.6 °F 28.4 °F 87% 30.14 in 10.0 mi SSE 6.9 mph - N/A   Clear
4:15 AM 32.0 °F 24.8 °F 30.2 °F 93% 30.13 in 10.0 mi SSE 8.1 mph - N/A   Clear
4:35 AM 32.0 °F 25.6 °F 30.2 °F 93% 30.13 in 10.0 mi SSE 6.9 mph - N/A   Clear
4:55 AM 32.0 °F 25.6 °F 30.2 °F 93% 30.13 in 10.0 mi SSE 6.9 mph - N/A   Clear
5:15 AM 32.0 °F 25.6 °F 30.2 °F 93% 30.12 in 10.0 mi SSE 6.9 mph - N/A   Clear
5:35 AM 32.0 °F 25.6 °F 28.4 °F 87% 30.13 in 10.0 mi South 6.9 mph - N/A   Clear
5:55 AM 32.0 °F 25.6 °F 28.4 °F 87% 30.13 in 10.0 mi South 6.9 mph - N/A   Clear
6:15 AM 32.0 °F 25.6 °F 30.2 °F 93% 30.13 in 10.0 mi South 6.9 mph - N/A   Clear
6:35 AM 32.0 °F 26.4 °F 30.2 °F 93% 30.14 in 10.0 mi SSE 5.8 mph - N/A   Clear
6:55 AM 32.0 °F 26.4 °F 30.2 °F 93% 30.14 in 10.0 mi SSE 5.8 mph - N/A   Clear
7:15 AM 32.0 °F 25.6 °F 28.4 °F 87% 30.15 in 10.0 mi SSE 6.9 mph - N/A   Clear
7:35 AM 32.0 °F 25.6 °F 28.4 °F 87% 30.16 in 10.0 mi South 6.9 mph - N/A   Clear
7:55 AM 32.0 °F 26.4 °F 30.2 °F 93% 30.15 in 10.0 mi South 5.8 mph - N/A   Clear
8:15 AM 33.8 °F 29.6 °F 32.0 °F 93% 30.16 in 10.0 mi South 4.6 mph - N/A   Clear
8:35 AM 35.6 °F 31.7 °F 32.0 °F 87% 30.15 in 10.0 mi SSE 4.6 mph - N/A   Clear
8:55 AM 37.4 °F 33.8 °F 32.0 °F 81% 30.16 in 10.0 mi SSE 4.6 mph - N/A   Clear
9:15 AM 41.0 °F 37.1 °F 32.0 °F 70% 30.17 in 10.0 mi SSW 5.8 mph - N/A   Clear
9:35 AM 42.8 °F 37.5 °F 32.0 °F 66% 30.17 in 10.0 mi South 9.2 mph - N/A   Clear
9:55 AM 42.8 °F 37.5 °F 32.0 °F 66% 30.18 in 10.0 mi SSW 9.2 mph - N/A   Clear
10:15 AM 44.6 °F 39.7 °F 32.0 °F 61% 30.17 in 10.0 mi SSW 9.2 mph - N/A   Clear
10:35 AM 46.4 °F 42.4 °F 32.0 °F 57% 30.16 in 10.0 mi SSW 8.1 mph - N/A   Clear
10:55 AM 48.2 °F - 32.0 °F 54% 30.16 in 10.0 mi South 6.9 mph - N/A   Clear
11:15 AM 50.0 °F - 32.0 °F 50% 30.15 in 10.0 mi SSW 8.1 mph - N/A   Clear
11:35 AM 51.8 °F - 33.8 °F 50% 30.13 in 10.0 mi SSE 9.2 mph - N/A   Clear
11:55 AM 51.8 °F - 33.8 °F 50% 30.12 in 10.0 mi South 9.2 mph - N/A   Clear
12:15 PM 53.6 °F - 33.8 °F 47% 30.11 in 10.0 mi SSW 8.1 mph - N/A   Clear
12:35 PM 53.6 °F - 33.8 °F 47% 30.11 in 10.0 mi South 8.1 mph - N/A   Clear
12:55 PM 55.4 °F - 33.8 °F 44% 30.11 in 10.0 mi SW 8.1 mph - N/A   Clear
1:15 PM 57.2 °F - 33.8 °F 41% 30.10 in 10.0 mi SSW 6.9 mph - N/A   Clear
1:35 PM 59.0 °F - 33.8 °F 39% 30.10 in 10.0 mi SW 9.2 mph - N/A   Clear
1:55 PM 59.0 °F - 33.8 °F 39% 30.09 in 10.0 mi SSW 8.1 mph - N/A   Clear
2:15 PM 60.8 °F - 33.8 °F 36% 30.09 in 10.0 mi South 8.1 mph - N/A   Clear
2:35 PM 62.6 °F - 33.8 °F 34% 30.08 in 10.0 mi South 9.2 mph - N/A   Clear
2:55 PM 62.6 °F - 33.8 °F 34% 30.08 in 10.0 mi South 9.2 mph - N/A   Clear
3:15 PM 62.6 °F - 33.8 °F 34% 30.09 in 10.0 mi South 8.1 mph - N/A   Clear
3:35 PM 60.8 °F - 33.8 °F 36% 30.10 in 10.0 mi South 4.6 mph - N/A   Clear
3:55 PM 60.8 °F - 33.8 °F 36% 30.10 in 10.0 mi SSW 3.5 mph - N/A   Clear
4:15 PM 60.8 °F - 33.8 °F 36% 30.10 in 10.0 mi South 5.8 mph - N/A   Clear
4:35 PM 59.0 °F - 33.8 °F 39% 30.09 in 10.0 mi South 6.9 mph - N/A   Clear
4:55 PM 55.4 °F - 33.8 °F 44% 30.08 in 10.0 mi South 6.9 mph - N/A   Clear
5:15 PM 51.8 °F - 33.8 °F 50% 30.09 in 10.0 mi SSE 6.9 mph - N/A   Clear
5:35 PM 50.0 °F - 33.8 °F 54% 30.09 in 10.0 mi SE 8.1 mph - N/A   Clear
5:55 PM 48.2 °F - 35.6 °F 62% 30.10 in 10.0 mi SE 6.9 mph - N/A   Clear
6:15 PM 50.0 °F - 35.6 °F 58% 30.10 in 10.0 mi SE 5.8 mph - N/A   Clear
6:35 PM 46.4 °F 42.9 °F 35.6 °F 66% 30.11 in 10.0 mi SE 6.9 mph - N/A   Clear
6:55 PM 46.4 °F 44.3 °F 33.8 °F 62% 30.13 in 10.0 mi NW 4.6 mph - N/A   Clear
7:15 PM 41.0 °F 38.0 °F 33.8 °F 76% 30.13 in 10.0 mi SSE 4.6 mph - N/A   Clear
7:35 PM 41.0 °F 36.4 °F 33.8 °F 76% 30.14 in 10.0 mi SSE 6.9 mph - N/A   Clear
7:55 PM 41.0 °F - 33.8 °F 76% 30.14 in 10.0 mi Calm Calm - N/A   Clear
8:15 PM 42.8 °F - 32.0 °F 66% 30.14 in 10.0 mi Calm Calm - N/A   Clear
8:35 PM 37.4 °F - 32.0 °F 81% 30.14 in 10.0 mi Calm Calm - N/A   Clear
8:55 PM 39.2 °F - 32.0 °F 75% 30.15 in 10.0 mi Calm Calm - N/A   Clear
9:15 PM 37.4 °F - 32.0 °F 81% 30.14 in 10.0 mi Calm Calm - N/A   Clear
9:35 PM 42.8 °F - 32.0 °F 66% 30.15 in 10.0 mi Calm Calm - N/A   Clear
9:55 PM 37.4 °F - 32.0 °F 81% 30.16 in 10.0 mi Calm Calm - N/A   Clear
10:15 PM 41.0 °F 36.4 °F 32.0 °F 70% 30.16 in 10.0 mi SW 6.9 mph - N/A   Clear
10:35 PM 37.4 °F 34.9 °F 32.0 °F 81% 30.16 in 10.0 mi SW 3.5 mph - N/A   Clear
10:55 PM 35.6 °F - 32.0 °F 87% 30.17 in 10.0 mi Calm Calm - N/A   Clear
11:15 PM 35.6 °F 32.8 °F 32.0 °F 87% 30.17 in 10.0 mi SW 3.5 mph - N/A   Clear
11:55 PM 37.4 °F 33.8 °F 32.0 °F 81% 30.16 in 10.0 mi SSW 4.6 mph - N/A   Clear